Effective Sunday, March 17, 2024, the National Weather Service National Data Buoy Center will discontinue its Dial-A-Buoy Interactive Voice Response system. For more information, see Service Change Notice 24-06 (PDF).

Station 42019 (LLNR 1285) - FREEPORT, TX - 60 NM South of Freeport, TX Image indicating link to RSS feed of recent meteorological observations for station 42019


Conditions at 42019 as of
(9:40 pm CST on 02/20/2024)
0340 GMT on 02/21/2024:
     

Click on the graph icon in the table below to see a time series plot of the last five days of that observation.

5-day plot - Wind Direction Wind Direction (WDIR): S ( 170 deg true )
5-day plot - Wind Speed Wind Speed (WSPD): 11.7 kts
5-day plot - Wind Gust Wind Gust (GST): 13.6 kts
5-day plot - Atmospheric Pressure Atmospheric Pressure (PRES):30.26 in
5-day plot - Water Temperature Water Temperature (WTMP): 68.0 °F
5-day plot - Wind Speed at 10 Meters Wind Speed at 10 meters (WSPD10M): 11.7 kts
5-day plot - Wind Speed at 20 Meters Wind Speed at 20 meters (WSPD20M): 11.7 kts
5-day plot -  Wind Speed, Wind Gust and Atmospheric Pressure Combined plot of Wind Speed, Gust, and Air Pressure
Supplemental Measurements
Highest 1-minute Wind Speed
Time (CST)5-day plot - 1-Minute Wind Speed WSPD 5-day plot - 1-Minute Wind Direction WDIR
9:32 pm 11.7 kts-
Previous observations
TIME
(CST)
5-day plot - Wind Direction
WDIR
 
5-day plot - Wind Speed
WSPD
kts
5-day plot - Wind Gust
GST
kts
5-day plot - Wave Height
WVHT
ft
5-day plot - Dominant Wave Period
DPD
sec
5-day plot - Average Wave Period
APD
sec
5-day plot - Mean Wave Direction
MWD
 
5-day plot - Atmospheric Pressure
PRES
in
5-day plot - Pressure Tendency
PTDY
in
5-day plot - Air Temperature
ATMP
°F
5-day plot - Water Temperature
WTMP
°F
5-day plot - Dew Point
DEWP
°F
5-day plot - Salinity
SAL
psu
5-day plot - Visibility
VIS
nmi
5-day plot - Tide (above MLLW)
TIDE
ft
2024-02-20 09:30 pm S 11.7 13.6----30.26-- 68.0----
2024-02-20 09:20 pm S 9.7 11.7 2.3 73.7 E30.26-- 68.2----
2024-02-20 09:10 pm S 11.7 13.6 2.3-3.7 E30.25-- 68.2----
2024-02-20 09:00 pm S 11.7 13.6----30.25+0.02- 68.2----
2024-02-20 08:50 pm S 9.7 13.6 2.3 73.7ESE30.25-- 68.2----
2024-02-20 08:40 pm S 11.7 13.6 2.3-3.7ESE30.25-- 68.2----
2024-02-20 08:30 pm S 9.7 13.6----30.25-- 68.2----
2024-02-20 08:20 pm S 9.7 11.7 2.3 83.9ESE30.25-- 68.2----
2024-02-20 08:10 pm S 9.7 11.7 2.3-3.9ESE30.25-- 68.2----
2024-02-20 08:00 pm S 9.7 11.7----30.25+0.03- 68.2----
2024-02-20 07:50 pm S 9.7 11.7 2.3 74.0 E30.25-- 68.2----
2024-02-20 07:40 pm S 9.7 11.7 2.3-4.0 E30.24-- 68.2----
2024-02-20 07:30 pm S 9.7 11.7----30.24-- 68.4----
2024-02-20 07:20 pm S 9.7 11.7 2.0 84.0 E30.24-- 68.4----
2024-02-20 07:10 pm S 9.7 11.7 2.0-4.0 E30.23-- 68.4----
2024-02-20 07:00 pm S 9.7 11.7----30.23+0.00- 68.4----
2024-02-20 06:50 pm S 9.7 11.7 2.3 74.1ESE30.23-- 68.4----
2024-02-20 06:40 pm S 9.7 11.7----30.23-- 68.4----
2024-02-20 06:30 pm S 9.7 11.7----30.23-- 68.4----
2024-02-20 06:20 pm S 9.7 11.7 2.3 74.3 E30.23-- 68.4----
2024-02-20 06:10 pm S 7.8 11.7 2.3-4.3 E30.23-- 68.5----
2024-02-20 06:00 pm S 9.7 11.7----30.23-0.01- 68.5----
2024-02-20 05:50 pm S 9.7 11.7 2.3 84.5 E30.23-- 68.5----
2024-02-20 05:40 pm S 9.7 11.7----30.23-- 68.5----
2024-02-20 05:20 pm S 9.7 11.7 2.3 84.3 E30.22-- 68.5----
2024-02-20 05:10 pm S 9.7 13.6 2.3-4.3 E30.22-- 68.5----
2024-02-20 05:00 pm S 9.7 11.7----30.22-0.02- 68.5----
2024-02-20 04:50 pm S 9.7 13.6 2.3 84.3 E30.22-- 68.7----
2024-02-20 04:40 pm S 9.7 11.7----30.22-- 68.7----
2024-02-20 04:30 pm S 9.7 11.7----30.23-- 68.7----
2024-02-20 04:20 pm S 9.7 11.7 2.3 84.6ESE30.23-- 68.7----
2024-02-20 04:10 pm S 9.7 11.7----30.23-- 68.7----
2024-02-20 04:00 pm S 7.8 11.7----30.23-0.05- 68.7----
2024-02-20 03:50 pm S 7.8 9.7 2.3 84.6 E30.23-- 68.7----
2024-02-20 03:40 pm S 7.8 9.7 2.3-4.6 E30.23-- 68.9----
2024-02-20 03:30 pm S 7.8 9.7----30.23-- 68.7----
2024-02-20 03:20 pm S 7.8 9.7 2.3 84.4 E30.24-- 68.7----
2024-02-20 03:10 pm S 7.8 9.7 2.3-4.4 E30.24-- 68.7----
2024-02-20 03:00 pm S 7.8 9.7----30.24-0.06- 68.7----
2024-02-20 02:50 pm S 7.8 9.7 2.3 84.3 E30.24-- 68.7----
2024-02-20 02:40 pm S 7.8 9.7 2.3-4.3 E30.24-- 68.7----
2024-02-20 02:30 pm S 7.8 9.7----30.24-- 68.7----
2024-02-20 02:20 pm S 7.8 11.7 2.3 84.4ESE30.24-- 68.7----
2024-02-20 02:10 pm S 7.8 9.7----30.24-- 68.7----
2024-02-20 02:00 pm S 9.7 11.7----30.24-0.08- 68.7----
2024-02-20 01:50 pm S 9.7 11.7 2.3 84.5ESE30.25-- 68.5----
2024-02-20 01:40 pm S 9.7 11.7 2.3-4.5ESE30.25-- 68.7----
2024-02-20 01:30 pm S 7.8 9.7----30.26-- 68.7----
2024-02-20 01:20 pm S 7.8 9.7 2.3 84.6ESE30.26-- 68.7----
2024-02-20 01:10 pm S 7.8 9.7 2.3-4.6ESE30.27-- 68.7----
2024-02-20 01:00 pm S 7.8 9.7----30.28-0.04- 68.9----
2024-02-20 12:50 pm S 7.8 9.7 2.3 84.8ESE30.28-- 68.7----
2024-02-20 12:40 pm S 7.8 9.7----30.29-- 68.7----
2024-02-20 12:30 pmSSW 7.8 9.7----30.29-- 68.9----
2024-02-20 12:20 pmSSW 5.8 7.8 2.6 84.7ESE30.29-- 69.1----
2024-02-20 12:10 pmSSW 3.9 5.8----30.30-- 69.1----
2024-02-20 12:00 pm SW 3.9 5.8----30.30+0.00- 68.9----
2024-02-20 11:50 amSSW 3.9 5.8 2.6 84.8ESE30.31-- 68.9----
2024-02-20 11:40 am S 3.9 3.9----30.31-- 68.9----
2024-02-20 11:30 am S 3.9 3.9----30.32-- 69.1----
2024-02-20 11:20 am S 3.9 3.9 2.6 84.7ESE30.32-- 68.4----
2024-02-20 11:10 amSSW 1.9 1.9----30.32-- 68.2----
2024-02-20 11:00 amSSW 1.9 1.9----30.32+0.05- 68.2----
2024-02-20 10:50 am SW 1.9 1.9 2.6 84.7ESE30.32-- 68.2----
2024-02-20 10:40 am SW 1.9 1.9 2.6-4.7ESE30.32-- 68.0----
2024-02-20 10:30 am SW 1.9 3.9----30.32-- 68.0----
2024-02-20 10:20 am SW 3.9 3.9 2.6 84.6ESE30.32-- 67.8----
2024-02-20 10:10 am SW 3.9 3.9 2.6-4.6ESE30.32-- 67.8----
2024-02-20 10:00 am SW 3.9 3.9----30.32+0.07- 67.8----
2024-02-20 09:50 amWSW 3.9 5.8 2.6 84.7ESE30.32-- 67.8----
2024-02-20 09:40 amWSW 3.9 5.8 2.6-4.7ESE30.32-- 67.6----
2024-02-20 09:30 amWSW 5.8 5.8----30.31-- 67.6----
2024-02-20 09:20 amWSW 5.8 7.8 2.6 84.6ESE30.31-- 67.6----
2024-02-20 09:10 am SW 5.8 7.8 2.6-4.6ESE30.31-- 67.6----
2024-02-20 09:00 am SW 7.8 9.7----30.30+0.07- 67.6----
2024-02-20 08:50 am SW 7.8 9.7 2.6 84.5ESE30.30-- 67.6----
2024-02-20 08:40 am SW 7.8 9.7 2.6-4.5ESE30.30-- 67.6----
2024-02-20 08:30 am SW 9.7 11.7----30.29-- 67.6----
2024-02-20 08:20 am SW 7.8 9.7 2.6 84.6ESE30.29-- 67.6----
2024-02-20 08:10 am SW 7.8 11.7 2.6-4.6ESE30.28-- 67.6----
2024-02-20 08:00 am SW 7.8 11.7----30.28+0.06- 67.6----
2024-02-20 07:50 am SW 7.8 9.7 2.6 84.8ESE30.27-- 67.6----
2024-02-20 07:40 am SW 7.8 9.7----30.27-- 67.6----
2024-02-20 07:30 am SW 7.8 9.7----30.26-- 67.6----
2024-02-20 07:20 am SW 7.8 9.7 2.6 84.5ESE30.26-- 67.6----
2024-02-20 07:10 am SW 7.8 9.7 2.6-4.5ESE30.25-- 67.6----
2024-02-20 07:00 am SW 7.8 7.8----30.25+0.03- 67.6----
2024-02-20 06:50 amWSW 5.8 7.8 3.0 85.0ESE30.24-- 67.6----
2024-02-20 06:40 amWSW 5.8 7.8 3.0-5.0ESE30.24-- 67.6----
2024-02-20 06:30 amWSW 5.8 7.8----30.24-- 67.6----
2024-02-20 06:20 amWSW 5.8 9.7 2.6 84.6ESE30.24-- 67.6----
2024-02-20 06:10 am SW 7.8 9.7 2.6-4.6ESE30.23-- 67.6----
2024-02-20 06:00 am SW 7.8 9.7----30.23+0.01- 67.6----
2024-02-20 05:50 am SW 5.8 7.8 2.6 84.5ESE30.23-- 67.6----
2024-02-20 05:40 am SW 5.8 7.8----30.23-- 67.6----
2024-02-20 05:30 am SW 5.8 7.8----30.23-- 67.6----
2024-02-20 05:20 am SW 5.8 7.8 2.6 84.7ESE30.22-- 67.6----
2024-02-20 05:10 amWSW 5.8 7.8----30.22-- 67.6----
2024-02-20 05:00 am SW 5.8 7.8----30.22+0.00- 67.6----
2024-02-20 04:50 am SW 7.8 9.7 3.0 84.5ESE30.22-- 67.6----
2024-02-20 04:40 am SW 7.8 9.7 3.0-4.5ESE30.21-- 67.6----
2024-02-20 04:30 am SW 9.7 11.7----30.22-- 67.6----
2024-02-20 04:20 am SW 9.7 11.7 3.0 84.5ESE30.22-------
2024-02-20 04:10 am SW 9.7 13.6 3.0-4.5ESE30.22-- 67.6----
2024-02-20 04:00 am SW 9.7 11.7----30.22+0.00- 67.6----
2024-02-20 03:50 am SW 9.7 13.6 3.0 74.5ESE30.22-- 67.6----
2024-02-20 03:40 amSSW 9.7 11.7----30.21-- 67.6----
2024-02-20 03:30 amSSW 9.7 11.7----30.21-- 67.6----
2024-02-20 03:20 amSSW 9.7 13.6 3.3 84.4ESE30.21-- 67.6----
2024-02-20 03:10 amSSW 11.7 13.6 3.3-4.4ESE30.22-- 67.6----
2024-02-20 03:00 amSSW 11.7 13.6----30.22-0.01- 67.6----
2024-02-20 02:50 amSSW 11.7 13.6 3.3 84.6ESE30.21-- 67.6----
2024-02-20 02:40 amSSW 11.7 15.5 3.3-4.6ESE30.21-- 67.6----
2024-02-20 02:30 amSSW 11.7 15.5----30.21-- 67.6----
2024-02-20 02:20 amSSW 11.7 15.5 3.3 84.6ESE30.21-- 67.6----
2024-02-20 02:10 amSSW 11.7 13.6----30.21-- 67.6----
2024-02-20 02:00 amSSW 11.7 15.5----30.21-0.02- 67.6----
2024-02-20 01:50 amSSW 11.7 13.6 3.0 84.5ESE30.22-- 67.6----
2024-02-20 01:40 amSSW 11.7 13.6 3.0-4.5ESE30.22-- 67.6----
2024-02-20 01:30 amSSW 11.7 15.5----30.22-- 67.6----
2024-02-20 01:20 amSSW 11.7 15.5 3.0 84.5ESE30.22-- 67.6----
2024-02-20 01:10 amSSW 11.7 15.5 3.0-4.5ESE30.22-- 67.8----
2024-02-20 01:00 amSSW 11.7 15.5----30.22-0.01- 67.8----
2024-02-20 12:50 am S 11.7 15.5 3.0 84.5ESE30.22-- 67.8----
2024-02-20 12:40 am S 11.7 15.5----30.22-- 67.8----
2024-02-20 12:30 am S 11.7 13.6----30.22-- 67.8----
2024-02-20 12:20 am S 11.7 15.5 3.0 84.3ESE30.22-- 67.8----
2024-02-20 12:10 am S 11.7 15.5 3.0-4.3ESE30.23-- 67.8----
2024-02-20 12:00 am S 11.7 15.5----30.23+0.00- 67.8----
2024-02-19 11:50 pm S 13.6 15.5 3.0 84.4ESE30.23-- 67.8----
2024-02-19 11:40 pm S 13.6 15.5----30.23-- 67.8----
2024-02-19 11:30 pm S 13.6 15.5----30.23-- 67.8----
2024-02-19 11:20 pm S 13.6 17.5 2.6 84.4 E30.23-- 67.8----
2024-02-19 11:10 pm S 13.6 15.5 2.6-4.4 E30.23-- 67.8----
2024-02-19 11:00 pm S 13.6 15.5----30.23+0.02- 67.8----
2024-02-19 10:50 pm S 11.7 15.5 2.6 84.5ESE30.23-- 67.8----
2024-02-19 10:40 pm S 11.7 13.6 2.6-4.5ESE30.23-- 67.8----
2024-02-19 10:30 pm S 11.7 13.6----30.24-- 67.8----
2024-02-19 10:20 pm S 11.7 15.5 2.6 74.5ESE30.24-- 67.8----
2024-02-19 10:10 pm S 11.7 15.5 2.6-4.5ESE30.23-- 67.8----
2024-02-19 10:00 pm S 11.7 13.6----30.23+0.04- 67.8----
2024-02-19 09:50 pm S 11.7 15.5 2.6 84.7ESE30.23-- 67.8----

Detailed Wave Summary
for 42019 as of
(9:10 pm CST on 02/20/2024)
0310 GMT on 02/21/2024:

These wave data are displayed in rounded times.

     

Click on the graph icon in the table below to see a time series plot of the last five days of that observation.

5-day plot - Significant Wave Height Significant Wave Height (WVHT): 2.3 ft
5-day plot - Swell Height Swell Height (SwH): 1.3 ft
5-day plot - Swell Period Swell Period (SwP): 6.7 sec
5-day plot - Swell Direction Swell Direction (SwD): E
5-day plot - Wind Wave Height Wind Wave Height (WWH): 2.0 ft
5-day plot - Wind Wave Period Wind Wave Period (WWP): 4.2 sec
5-day plot - Wind Wave Direction Wind Wave Direction (WWD): S
5-day plot - Average Wave Period Average Wave Period (APD): 3.7 sec
Previous observations
TIME
(CST)
5-day plot - Wave Height
WVHT
ft
5-day plot - Swell Height
SwH
ft
5-day plot - Swell Period
SwP
sec
5-day plot - Swell Direction
SwD
 
5-day plot - Wind Wave Height
WWH
ft
5-day plot - Wind Wave Period
WWP
sec
5-day plot - Wind Wave Direction
WWD
 
5-day plot - Wave Steepness
STEEPNESS
 
5-day plot - Average Wave Period
APD
sec
2024-02-20 08:40 pm 2.3 1.3 7.1ESE 2.0 3.4 S N/A 3.7
2024-02-20 08:10 pm 2.3 1.3 7.7ESE 1.6 4.3 SSW N/A 3.9
2024-02-20 07:40 pm 2.3 1.3 7.1 E 1.6 4.5 S N/A 4.0
2024-02-20 07:10 pm 2.0 1.6 7.7 E 1.6 4.5 S N/A 4.0
2024-02-20 06:40 pm 2.3 1.6 7.1ESE 1.6 4.3 S N/A 4.1
2024-02-20 06:10 pm 2.3 2.0 7.1 E 1.3 3.8 S N/A 4.3
2024-02-20 05:40 pm 2.3 2.0 7.7 E 1.6 4.2 S N/A 4.5
2024-02-20 05:10 pm 2.3 1.6 7.7 E 1.6 4.5 S N/A 4.3
2024-02-20 04:40 pm 2.3 1.6 7.7 E 1.6 4.2 SSW N/A 4.3
2024-02-20 04:10 pm 2.3 2.0 7.7ESE 1.3 4.3 S N/A 4.6
2024-02-20 03:40 pm 2.3 2.0 7.7 E 1.3 3.8 S N/A 4.6
2024-02-20 03:10 pm 2.3 2.0 7.7 E 1.3 3.6 S N/A 4.4
2024-02-20 02:40 pm 2.3 1.6 7.7 E 1.3 4.2 S N/A 4.3
2024-02-20 02:10 pm 2.3 2.0 7.7ESE 1.3 4.2 SSW N/A 4.4
2024-02-20 01:40 pm 2.3 1.6 7.7ESE 1.3 4.3 SSW N/A 4.5
2024-02-20 01:10 pm 2.3 2.0 7.7ESE 1.0 3.1 SSW N/A 4.6
2024-02-20 12:40 pm 2.3 2.3 7.7ESE 1.3 3.8 SSW N/A 4.8
2024-02-20 12:10 pm 2.6 2.3 7.7ESE 1.3 4.0 SSW N/A 4.7
2024-02-20 11:40 am 2.6 2.3 7.7ESE 1.3 4.0 SSW N/A 4.8
2024-02-20 11:10 am 2.6 2.3 7.7ESE 1.3 3.7 SSW N/A 4.7
2024-02-20 10:40 am 2.6 2.3 7.7ESE 1.3 3.7 SSW N/A 4.7
2024-02-20 10:10 am 2.6 2.3 7.7ESE 1.3 3.4 SSW N/A 4.6
2024-02-20 09:40 am 2.6 2.3 7.7ESE 1.3 4.0 SSW SWELL 4.7
2024-02-20 09:10 am 2.6 2.3 8.3ESE 1.6 3.8 SSW SWELL 4.6
2024-02-20 08:40 am 2.6 2.0 8.3ESE 1.6 4.2 SSW N/A 4.5
2024-02-20 08:10 am 2.6 2.3 7.7ESE 1.6 4.0 SSW SWELL 4.6
2024-02-20 07:40 am 2.6 2.3 8.3ESE 1.6 4.0 S SWELL 4.8
2024-02-20 07:10 am 2.6 2.3 8.3ESE 1.6 4.0 SSW SWELL 4.5
2024-02-20 06:40 am 3.0 2.6 8.3ESE 1.3 4.0 S SWELL 5.0
2024-02-20 06:10 am 2.6 2.3 7.7ESE 1.6 3.8 SSW SWELL 4.6
2024-02-20 05:40 am 2.6 2.3 8.3ESE 1.6 4.0 S SWELL 4.5
2024-02-20 05:10 am 2.6 2.3 7.7ESE 1.3 3.7 SSW SWELL 4.7
2024-02-20 04:40 am 3.0 2.3 8.3ESE 1.6 3.7 SSW SWELL 4.5
2024-02-20 04:10 am 3.0 2.3 7.7ESE 2.0 3.8 S AVERAGE 4.5
2024-02-20 03:40 am 3.0 2.3 7.1ESE 2.0 4.0 SSW AVERAGE 4.5
2024-02-20 03:10 am 3.3 2.3 8.3ESE 2.3 3.7 SSW SWELL 4.4
2024-02-20 02:40 am 3.3 2.6 8.3ESE 2.0 3.8 S SWELL 4.6
2024-02-20 02:10 am 3.3 2.3 7.7ESE 2.0 3.6 S AVERAGE 4.6
2024-02-20 01:40 am 3.0 2.3 8.3ESE 2.0 3.6 SSW SWELL 4.5
2024-02-20 01:10 am 3.0 2.0 8.3ESE 2.0 3.3 SSW SWELL 4.5
2024-02-20 12:40 am 3.0 2.3 8.3ESE 2.0 3.2 SSW SWELL 4.5
2024-02-20 12:10 am 3.0 2.3 7.7ESE 2.0 3.3 SSW AVERAGE 4.3
2024-02-19 11:40 pm 3.0 2.3 8.3ESE 2.0 3.0 SSW SWELL 4.4
2024-02-19 11:10 pm 2.6 2.0 8.3 E 1.6 5.6 ESE SWELL 4.4
2024-02-19 10:40 pm 2.6 2.3 8.3ESE 1.6 2.9 SW SWELL 4.5
2024-02-19 10:10 pm 2.6 2.0 7.1ESE 1.6 5.3 ESE N/A 4.5

Plot of wave energy versus frequency (and period)